Time,TemperatureF,DewpointF,PressureIn,WindDirection,WindDirectionDegrees,WindSpeedMPH,WindSpeedGustMPH,Humidity,HourlyPrecipIn,Conditions,Clouds,dailyrainin,SoftwareType,DateUTC
2013-04-20 00:01:00,51.8,39.2,29.90,ESE,121,1.0,2.0,62,0.00,,---,0.00,VWS V14.01,2013-04-20 04:01:00,
2013-04-20 00:06:00,51.6,39.8,29.90,ESE,118,2.0,2.0,64,0.00,,---,0.00,VWS V14.01,2013-04-20 04:06:00,
2013-04-20 00:11:00,51.4,39.2,29.90,ENE,70,0.0,3.0,63,0.00,,---,0.00,VWS V14.01,2013-04-20 04:11:00,
2013-04-20 00:16:00,51.1,39.0,29.90,NNW,332,3.0,9.0,63,0.00,,---,0.00,VWS V14.01,2013-04-20 04:16:00,
2013-04-20 00:21:00,51.0,39.3,29.90,NNE,29,3.0,9.0,64,0.00,,---,0.00,VWS V14.01,2013-04-20 04:21:00,
2013-04-20 00:26:00,50.8,39.9,29.91,ESE,123,1.0,9.0,66,0.00,,---,0.00,VWS V14.01,2013-04-20 04:26:00,
2013-04-20 00:31:00,50.6,38.9,29.91,South,189,0.0,3.0,64,0.00,,---,0.00,VWS V14.01,2013-04-20 04:31:00,
2013-04-20 00:36:00,50.2,40.4,29.92,North,4,2.0,3.0,69,0.00,,---,0.00,VWS V14.01,2013-04-20 04:36:00,
2013-04-20 00:41:00,50.2,37.7,29.92,WNW,293,1.0,10.0,62,0.00,,---,0.00,VWS V14.01,2013-04-20 04:41:00,
2013-04-20 00:46:00,50.3,37.4,29.92,North,5,8.0,9.0,61,0.00,,---,0.00,VWS V14.01,2013-04-20 04:46:00,
2013-04-20 00:51:00,50.3,36.5,29.92,West,264,5.0,10.0,59,0.00,,---,0.00,VWS V14.01,2013-04-20 04:51:00,
2013-04-20 00:56:00,50.3,35.2,29.93,NW,320,6.0,20.0,56,0.00,,---,0.00,VWS V14.01,2013-04-20 04:56:00,
2013-04-20 01:01:00,50.3,35.7,29.92,North,357,1.0,10.0,57,0.00,,---,0.00,VWS V14.01,2013-04-20 05:01:00,
2013-04-20 01:06:00,50.2,34.7,29.93,WNW,289,6.0,19.0,55,0.00,,---,0.00,VWS V14.01,2013-04-20 05:06:00,
2013-04-20 01:11:00,50.1,34.6,29.94,WNW,292,13.0,19.0,55,0.00,,---,0.00,VWS V14.01,2013-04-20 05:11:00,
2013-04-20 01:16:00,49.9,34.8,29.94,North,8,4.0,7.0,56,0.00,,---,0.00,VWS V14.01,2013-04-20 05:16:00,
2013-04-20 01:21:00,49.8,35.2,29.94,WNW,292,7.0,9.0,57,0.00,,---,0.00,VWS V14.01,2013-04-20 05:21:00,
2013-04-20 01:26:00,49.7,35.1,29.95,NNE,16,2.0,12.0,57,0.00,,---,0.00,VWS V14.01,2013-04-20 05:26:00,
2013-04-20 01:31:00,49.6,34.6,29.95,NNW,337,3.0,9.0,56,0.00,,---,0.00,VWS V14.01,2013-04-20 05:31:00,
2013-04-20 01:36:00,49.5,34.9,29.96,West,279,6.0,12.0,57,0.00,,---,0.00,VWS V14.01,2013-04-20 05:36:00,
2013-04-20 01:41:00,49.4,35.3,29.95,NW,316,5.0,13.0,58,0.00,,---,0.00,VWS V14.01,2013-04-20 05:41:00,
2013-04-20 01:46:00,49.3,35.2,29.95,NW,320,3.0,9.0,58,0.00,,---,0.00,VWS V14.01,2013-04-20 05:46:00,
2013-04-20 01:51:00,49.1,35.0,29.96,WNW,291,10.0,10.0,58,0.00,,---,0.00,VWS V14.01,2013-04-20 05:51:00,
2013-04-20 01:56:00,49.1,35.0,29.96,NW,315,4.0,10.0,58,0.00,,---,0.00,VWS V14.01,2013-04-20 05:56:00,
2013-04-20 02:01:00,49.0,35.7,29.96,NNW,336,0.0,5.0,60,0.00,,---,0.00,VWS V14.01,2013-04-20 06:01:00,
2013-04-20 02:06:00,48.9,35.6,29.96,NNW,329,3.0,6.0,60,0.00,,---,0.00,VWS V14.01,2013-04-20 06:06:00,
2013-04-20 02:11:00,48.8,36.0,29.96,WNW,283,3.0,14.0,61,0.00,,---,0.00,VWS V14.01,2013-04-20 06:11:00,
2013-04-20 02:16:00,48.6,36.6,29.97,NNW,341,3.0,8.0,63,0.00,,---,0.00,VWS V14.01,2013-04-20 06:16:00,
2013-04-20 02:21:00,48.2,36.2,29.97,North,8,4.0,8.0,63,0.00,,---,0.00,VWS V14.01,2013-04-20 06:21:00,
2013-04-20 02:26:00,47.8,35.8,29.97,NW,318,4.0,10.0,63,0.00,,---,0.00,VWS V14.01,2013-04-20 06:26:00,
2013-04-20 02:31:00,47.6,36.4,29.97,ENE,69,0.0,4.0,65,0.00,,---,0.00,VWS V14.01,2013-04-20 06:31:00,
2013-04-20 02:36:00,47.5,36.3,29.98,North,352,2.0,10.0,65,0.00,,---,0.00,VWS V14.01,2013-04-20 06:36:00,
2013-04-20 02:41:00,47.5,35.5,29.98,NNW,341,3.0,11.0,63,0.00,,---,0.00,VWS V14.01,2013-04-20 06:41:00,
2013-04-20 02:46:00,47.4,35.8,29.98,WNW,299,0.0,3.0,64,0.00,,---,0.00,VWS V14.01,2013-04-20 06:46:00,
2013-04-20 02:51:00,47.3,35.8,29.98,NNW,331,0.0,4.0,64,0.00,,---,0.00,VWS V14.01,2013-04-20 06:51:00,
2013-04-20 02:56:00,47.2,36.0,29.98,SE,134,0.0,4.0,65,0.00,,---,0.00,VWS V14.01,2013-04-20 06:56:00,
2013-04-20 03:01:00,47.1,36.3,29.98,SE,134,0.0,0.0,66,0.00,,---,0.00,VWS V14.01,2013-04-20 07:01:00,
2013-04-20 03:06:00,46.8,36.0,29.98,SE,127,0.0,0.0,66,0.00,,---,0.00,VWS V14.01,2013-04-20 07:06:00,
2013-04-20 03:11:00,46.7,35.2,29.99,North,357,4.0,8.0,64,0.00,,---,0.00,VWS V14.01,2013-04-20 07:11:00,
2013-04-20 03:16:00,46.9,35.4,29.99,NNE,17,3.0,3.0,64,0.00,,---,0.00,VWS V14.01,2013-04-20 07:16:00,
2013-04-20 03:21:00,47.0,35.5,29.99,NNW,343,0.0,3.0,64,0.00,,---,0.00,VWS V14.01,2013-04-20 07:21:00,
2013-04-20 03:26:00,46.9,35.8,29.99,NNE,12,3.0,3.0,65,0.00,,---,0.00,VWS V14.01,2013-04-20 07:26:00,
2013-04-20 03:31:00,46.9,34.6,29.99,NNE,13,3.0,4.0,62,0.00,,---,0.00,VWS V14.01,2013-04-20 07:31:00,
2013-04-20 03:36:00,46.9,34.6,30.00,North,8,0.0,4.0,62,0.00,,---,0.00,VWS V14.01,2013-04-20 07:36:00,
2013-04-20 03:41:00,46.9,35.0,29.99,NNE,23,3.0,6.0,63,0.00,,---,0.00,VWS V14.01,2013-04-20 07:41:00,
2013-04-20 03:46:00,47.0,33.8,29.99,NW,312,0.0,10.0,60,0.00,,---,0.00,VWS V14.01,2013-04-20 07:46:00,
2013-04-20 03:51:00,46.9,33.8,30.00,NW,320,4.0,10.0,60,0.00,,---,0.00,VWS V14.01,2013-04-20 07:51:00,
2013-04-20 03:56:00,46.9,33.3,30.00,NNW,339,0.0,10.0,59,0.00,,---,0.00,VWS V14.01,2013-04-20 07:56:00,
2013-04-20 04:01:00,46.9,33.8,30.00,WNW,302,2.0,3.0,60,0.00,,---,0.00,VWS V14.01,2013-04-20 08:01:00,
2013-04-20 04:06:00,46.8,34.1,30.00,North,5,3.0,5.0,61,0.00,,---,0.00,VWS V14.01,2013-04-20 08:06:00,
2013-04-20 04:11:00,46.6,33.5,30.00,ESE,110,0.0,6.0,60,0.00,,---,0.00,VWS V14.01,2013-04-20 08:11:00,
2013-04-20 04:16:00,46.5,33.0,30.01,North,353,4.0,5.0,59,0.00,,---,0.00,VWS V14.01,2013-04-20 08:16:00,
2013-04-20 04:21:00,46.6,33.5,30.01,North,356,0.0,5.0,60,0.00,,---,0.00,VWS V14.01,2013-04-20 08:21:00,
2013-04-20 04:26:00,46.4,34.5,30.02,East,81,0.0,5.0,63,0.00,,---,0.00,VWS V14.01,2013-04-20 08:26:00,
2013-04-20 04:31:00,46.4,33.3,30.02,NNW,337,3.0,6.0,60,0.00,,---,0.00,VWS V14.01,2013-04-20 08:31:00,
2013-04-20 04:36:00,46.5,33.4,30.02,NNE,27,0.0,7.0,60,0.00,,---,0.00,VWS V14.01,2013-04-20 08:36:00,
2013-04-20 04:41:00,46.4,33.3,30.02,North,9,2.0,7.0,60,0.00,,---,0.00,VWS V14.01,2013-04-20 08:41:00,
2013-04-20 04:46:00,46.4,32.9,30.02,North,352,3.0,5.0,59,0.00,,---,0.00,VWS V14.01,2013-04-20 08:46:00,
2013-04-20 04:51:00,46.3,34.0,30.03,NNE,23,0.0,5.0,62,0.00,,---,0.00,VWS V14.01,2013-04-20 08:51:00,
2013-04-20 04:56:00,46.1,32.2,30.03,WNW,295,7.0,7.0,58,0.00,,---,0.00,VWS V14.01,2013-04-20 08:56:00,
2013-04-20 05:01:00,46.0,32.5,30.03,NW,310,0.0,1.0,59,0.00,,---,0.00,VWS V14.01,2013-04-20 09:01:00,
2013-04-20 05:06:00,45.9,32.0,30.04,SW,235,7.0,9.0,58,0.00,,---,0.00,VWS V14.01,2013-04-20 09:06:00,
2013-04-20 05:11:00,45.6,31.3,30.04,NNE,12,5.0,9.0,57,0.00,,---,0.00,VWS V14.01,2013-04-20 09:11:00,
2013-04-20 05:16:00,45.5,30.7,30.04,WSW,250,8.0,11.0,56,0.00,,---,0.00,VWS V14.01,2013-04-20 09:16:00,
2013-04-20 05:21:00,45.4,30.2,30.04,North,11,4.0,11.0,55,0.00,,---,0.00,VWS V14.01,2013-04-20 09:21:00,
2013-04-20 05:26:00,45.3,29.6,30.04,North,349,5.0,12.0,54,0.00,,---,0.00,VWS V14.01,2013-04-20 09:26:00,
2013-04-20 05:31:00,45.1,29.9,30.05,North,352,2.0,12.0,55,0.00,,---,0.00,VWS V14.01,2013-04-20 09:31:00,
2013-04-20 05:36:00,44.9,29.7,30.05,NW,309,5.0,12.0,55,0.00,,---,0.00,VWS V14.01,2013-04-20 09:36:00,
2013-04-20 05:41:00,44.7,29.1,30.06,NW,325,16.0,16.0,54,0.00,,---,0.00,VWS V14.01,2013-04-20 09:41:00,
2013-04-20 05:46:00,44.7,28.6,30.06,NW,305,6.0,13.0,53,0.00,,---,0.00,VWS V14.01,2013-04-20 09:46:00,
2013-04-20 05:51:00,44.5,28.0,30.06,North,359,6.0,15.0,52,0.00,,---,0.00,VWS V14.01,2013-04-20 09:51:00,
2013-04-20 05:56:00,44.4,27.9,30.06,NW,325,2.0,15.0,52,0.00,,---,0.00,VWS V14.01,2013-04-20 09:56:00,
2013-04-20 06:01:00,44.1,28.1,30.07,West,260,2.0,7.0,53,0.00,,---,0.00,VWS V14.01,2013-04-20 10:01:00,
2013-04-20 06:06:00,44.0,28.0,30.07,NW,308,0.0,7.0,53,0.00,,---,0.00,VWS V14.01,2013-04-20 10:06:00,
2013-04-20 06:11:00,43.7,28.2,30.07,WNW,303,4.0,7.0,54,0.00,,---,0.00,VWS V14.01,2013-04-20 10:11:00,
2013-04-20 06:16:00,43.5,28.4,30.08,WNW,303,5.0,7.0,55,0.00,,---,0.00,VWS V14.01,2013-04-20 10:16:00,
2013-04-20 06:21:00,43.3,29.5,30.08,South,170,2.0,7.0,58,0.00,,---,0.00,VWS V14.01,2013-04-20 10:21:00,
2013-04-20 06:26:00,42.9,27.9,30.08,WNW,302,4.0,7.0,55,0.00,,---,0.00,VWS V14.01,2013-04-20 10:26:00,
2013-04-20 06:31:00,43.0,28.0,30.09,NW,312,0.0,2.0,55,0.00,,---,0.00,VWS V14.01,2013-04-20 10:31:00,
2013-04-20 06:36:00,43.0,28.8,30.09,NW,311,1.0,6.0,57,0.00,,---,0.00,VWS V14.01,2013-04-20 10:36:00,
2013-04-20 06:41:00,42.9,27.9,30.09,NNE,23,0.0,6.0,55,0.00,,---,0.00,VWS V14.01,2013-04-20 10:41:00,
2013-04-20 06:46:00,42.8,28.2,30.09,NNE,19,0.0,0.0,56,0.00,,---,0.00,VWS V14.01,2013-04-20 10:46:00,
2013-04-20 06:51:00,42.7,28.1,30.10,NNW,348,0.0,6.0,56,0.00,,---,0.00,VWS V14.01,2013-04-20 10:51:00,
2013-04-20 06:56:00,42.6,27.1,30.10,NW,320,0.0,6.0,54,0.00,,---,0.00,VWS V14.01,2013-04-20 10:56:00,
2013-04-20 07:01:00,42.5,27.5,30.10,NW,324,0.0,4.0,55,0.00,,---,0.00,VWS V14.01,2013-04-20 11:01:00,
2013-04-20 07:06:00,42.4,27.4,30.11,ESE,103,0.0,4.0,55,0.00,,---,0.00,VWS V14.01,2013-04-20 11:06:00,
2013-04-20 07:11:00,42.4,27.8,30.11,WSW,241,0.0,4.0,56,0.00,,---,0.00,VWS V14.01,2013-04-20 11:11:00,
2013-04-20 07:16:00,42.2,27.2,30.11,ESE,122,3.0,4.0,55,0.00,,---,0.00,VWS V14.01,2013-04-20 11:16:00,
2013-04-20 07:21:00,42.2,28.1,30.11,East,79,6.0,10.0,57,0.00,,---,0.00,VWS V14.01,2013-04-20 11:21:00,
2013-04-20 07:26:00,42.5,27.0,30.12,WSW,253,5.0,10.0,54,0.00,,---,0.00,VWS V14.01,2013-04-20 11:26:00,
2013-04-20 07:31:00,42.7,27.2,30.12,SE,131,0.0,0.0,54,0.00,,---,0.00,VWS V14.01,2013-04-20 11:31:00,
2013-04-20 07:36:00,42.7,27.2,30.11,ESE,121,1.0,4.0,54,0.00,,---,0.00,VWS V14.01,2013-04-20 11:36:00,
2013-04-20 07:41:00,42.9,27.9,30.12,ESE,116,1.0,6.0,55,0.00,,---,0.00,VWS V14.01,2013-04-20 11:41:00,
2013-04-20 07:46:00,43.1,26.7,30.12,West,275,3.0,5.0,52,0.00,,---,0.00,VWS V14.01,2013-04-20 11:46:00,
2013-04-20 07:51:00,43.2,26.8,30.12,NNE,27,5.0,7.0,52,0.00,,---,0.00,VWS V14.01,2013-04-20 11:51:00,
2013-04-20 07:56:00,43.4,28.8,30.12,NNE,29,5.0,7.0,56,0.00,,---,0.00,VWS V14.01,2013-04-20 11:56:00,
2013-04-20 08:01:00,43.6,28.1,30.13,SE,126,1.0,6.0,54,0.00,,---,0.00,VWS V14.01,2013-04-20 12:01:00,
2013-04-20 08:06:00,43.8,27.8,30.13,ESE,105,1.0,6.0,53,0.00,,---,0.00,VWS V14.01,2013-04-20 12:06:00,
2013-04-20 08:11:00,44.1,28.1,30.13,East,89,0.0,8.0,53,0.00,,---,0.00,VWS V14.01,2013-04-20 12:11:00,
2013-04-20 08:16:00,44.3,26.9,30.14,ESE,113,4.0,5.0,50,0.00,,---,0.00,VWS V14.01,2013-04-20 12:16:00,
2013-04-20 08:21:00,44.7,27.2,30.14,NNW,345,5.0,14.0,50,0.00,,---,0.00,VWS V14.01,2013-04-20 12:21:00,
2013-04-20 08:26:00,45.1,29.0,30.14,NE,36,0.0,14.0,53,0.00,,---,0.00,VWS V14.01,2013-04-20 12:26:00,
2013-04-20 08:31:00,45.7,29.6,30.14,North,2,4.0,8.0,53,0.00,,---,0.00,VWS V14.01,2013-04-20 12:31:00,
2013-04-20 08:36:00,45.9,29.8,30.15,NE,46,0.0,8.0,53,0.00,,---,0.00,VWS V14.01,2013-04-20 12:36:00,
2013-04-20 08:41:00,45.7,28.1,30.15,WNW,297,8.0,12.0,50,0.00,,---,0.00,VWS V14.01,2013-04-20 12:41:00,
2013-04-20 08:46:00,45.4,28.4,30.15,West,271,1.0,6.0,51,0.00,,---,0.00,VWS V14.01,2013-04-20 12:46:00,
2013-04-20 08:51:00,45.6,29.0,30.16,NW,312,4.0,11.0,52,0.00,,---,0.00,VWS V14.01,2013-04-20 12:51:00,
2013-04-20 08:56:00,45.7,28.1,30.16,WNW,295,6.0,12.0,50,0.00,,---,0.00,VWS V14.01,2013-04-20 12:56:00,
2013-04-20 09:01:00,46.0,28.4,30.16,WNW,287,4.0,7.0,50,0.00,,---,0.00,VWS V14.01,2013-04-20 13:01:00,
2013-04-20 09:06:00,46.3,29.2,30.16,North,8,9.0,11.0,51,0.00,,---,0.00,VWS V14.01,2013-04-20 13:06:00,
2013-04-20 09:11:00,46.4,29.8,30.16,NW,304,2.0,11.0,52,0.00,,---,0.00,VWS V14.01,2013-04-20 13:11:00,
2013-04-20 09:16:00,46.8,30.1,30.17,NNW,341,2.0,3.0,52,0.00,,---,0.00,VWS V14.01,2013-04-20 13:16:00,
2013-04-20 09:21:00,46.6,28.0,30.17,NW,325,5.0,10.0,48,0.00,,---,0.00,VWS V14.01,2013-04-20 13:21:00,
2013-04-20 09:26:00,47.2,29.0,30.17,North,8,5.0,10.0,49,0.00,,---,0.00,VWS V14.01,2013-04-20 13:26:00,
2013-04-20 09:31:00,47.5,28.3,30.17,NNW,339,6.0,7.0,47,0.00,,---,0.00,VWS V14.01,2013-04-20 13:31:00,
2013-04-20 09:36:00,47.4,28.7,30.17,West,270,3.0,10.0,48,0.00,,---,0.00,VWS V14.01,2013-04-20 13:36:00,
2013-04-20 09:41:00,47.7,30.0,30.17,WSW,248,4.0,10.0,50,0.00,,---,0.00,VWS V14.01,2013-04-20 13:41:00,
2013-04-20 09:46:00,48.2,28.4,30.17,North,6,2.0,3.0,46,0.00,,---,0.00,VWS V14.01,2013-04-20 13:46:00,
2013-04-20 09:51:00,48.6,29.8,30.17,NW,306,4.0,5.0,48,0.00,,---,0.00,VWS V14.01,2013-04-20 13:51:00,
2013-04-20 09:56:00,48.2,28.9,30.18,NW,324,4.0,18.0,47,0.00,,---,0.00,VWS V14.01,2013-04-20 13:56:00,
2013-04-20 10:01:00,48.1,27.2,30.18,West,270,9.0,10.0,44,0.00,,---,0.00,VWS V14.01,2013-04-20 14:01:00,
2013-04-20 10:06:00,47.9,28.1,30.18,North,350,6.0,12.0,46,0.00,,---,0.00,VWS V14.01,2013-04-20 14:06:00,
2013-04-20 10:11:00,48.3,28.5,30.18,NW,318,11.0,14.0,46,0.00,,---,0.00,VWS V14.01,2013-04-20 14:11:00,
2013-04-20 10:16:00,48.5,28.1,30.19,WNW,302,8.0,8.0,45,0.00,,---,0.00,VWS V14.01,2013-04-20 14:16:00,
2013-04-20 10:21:00,48.3,27.4,30.19,North,8,9.0,14.0,44,0.00,,---,0.00,VWS V14.01,2013-04-20 14:21:00,
2013-04-20 10:26:00,48.2,28.4,30.19,NW,319,8.0,17.0,46,0.00,,---,0.00,VWS V14.01,2013-04-20 14:26:00,
2013-04-20 10:31:00,48.7,30.9,30.19,NNW,345,8.0,11.0,50,0.00,,---,0.00,VWS V14.01,2013-04-20 14:31:00,
2013-04-20 10:36:00,49.0,29.1,30.19,North,360,4.0,15.0,46,0.00,,---,0.00,VWS V14.01,2013-04-20 14:36:00,
2013-04-20 10:41:00,49.2,27.7,30.19,NW,325,4.0,15.0,43,0.00,,---,0.00,VWS V14.01,2013-04-20 14:41:00,
2013-04-20 10:46:00,49.5,28.5,30.20,WNW,294,9.0,10.0,44,0.00,,---,0.00,VWS V14.01,2013-04-20 14:46:00,
2013-04-20 10:51:00,49.6,29.1,30.20,North,354,8.0,15.0,45,0.00,,---,0.00,VWS V14.01,2013-04-20 14:51:00,
2013-04-20 10:56:00,49.8,29.9,30.20,NNE,14,10.0,15.0,46,0.00,,---,0.00,VWS V14.01,2013-04-20 14:56:00,
2013-04-20 11:01:00,49.9,31.0,30.20,North,351,9.0,10.0,48,0.00,,---,0.00,VWS V14.01,2013-04-20 15:01:00,
2013-04-20 11:06:00,50.1,29.0,30.20,NNE,17,2.0,14.0,44,0.00,,---,0.00,VWS V14.01,2013-04-20 15:06:00,
2013-04-20 11:11:00,50.1,29.0,30.20,North,355,6.0,14.0,44,0.00,,---,0.00,VWS V14.01,2013-04-20 15:11:00,
2013-04-20 11:16:00,50.0,27.8,30.20,North,358,5.0,7.0,42,0.00,,---,0.00,VWS V14.01,2013-04-20 15:16:00,
2013-04-20 11:21:00,50.7,31.2,30.20,West,262,9.0,11.0,47,0.00,,---,0.00,VWS V14.01,2013-04-20 15:21:00,
2013-04-20 11:26:00,51.0,31.0,30.20,NNE,25,3.0,11.0,46,0.00,,---,0.00,VWS V14.01,2013-04-20 15:26:00,
2013-04-20 11:31:00,51.8,30.0,30.20,NNW,334,3.0,10.0,43,0.00,,---,0.00,VWS V14.01,2013-04-20 15:31:00,
2013-04-20 11:35:00,51.7,31.1,30.20,North,358,3.0,16.0,45,0.00,,---,0.00,VWS V14.01,2013-04-20 15:35:00,
2013-04-20 11:40:00,51.8,30.0,30.20,NW,320,1.0,16.0,43,0.00,,---,0.00,VWS V14.01,2013-04-20 15:40:00,
2013-04-20 11:45:00,51.8,30.0,30.20,NW,308,1.0,9.0,43,0.00,,---,0.00,VWS V14.01,2013-04-20 15:45:00,
2013-04-20 11:50:00,52.3,28.1,30.20,North,357,5.0,9.0,39,0.00,,---,0.00,VWS V14.01,2013-04-20 15:50:00,
2013-04-20 11:55:00,52.0,28.5,30.20,North,2,9.0,11.0,40,0.00,,---,0.00,VWS V14.01,2013-04-20 15:55:00,
2013-04-20 12:00:00,52.1,30.3,30.20,WNW,292,3.0,9.0,43,0.00,,---,0.00,VWS V14.01,2013-04-20 16:00:00,
2013-04-20 12:05:00,52.8,29.8,30.20,WNW,301,3.0,9.0,41,0.00,,---,0.00,VWS V14.01,2013-04-20 16:05:00,
2013-04-20 12:10:00,53.1,30.6,30.20,NNW,330,5.0,11.0,42,0.00,,---,0.00,VWS V14.01,2013-04-20 16:10:00,
2013-04-20 12:15:00,53.0,30.5,30.19,North,358,8.0,12.0,42,0.00,,---,0.00,VWS V14.01,2013-04-20 16:15:00,
2013-04-20 12:20:00,53.0,30.5,30.19,NW,322,5.0,12.0,42,0.00,,---,0.00,VWS V14.01,2013-04-20 16:20:00,
2013-04-20 12:25:00,53.4,30.3,30.20,NNE,21,8.0,12.0,41,0.00,,---,0.00,VWS V14.01,2013-04-20 16:25:00,
2013-04-20 12:30:00,53.3,29.0,30.19,NW,320,3.0,5.0,39,0.00,,---,0.00,VWS V14.01,2013-04-20 16:30:00,
2013-04-20 12:35:00,53.4,30.3,30.19,NNW,329,6.0,10.0,41,0.00,,---,0.00,VWS V14.01,2013-04-20 16:35:00,
2013-04-20 12:40:00,53.6,29.9,30.19,NW,320,4.0,12.0,40,0.00,,---,0.00,VWS V14.01,2013-04-20 16:40:00,
2013-04-20 12:45:00,53.6,29.3,30.19,North,356,7.0,12.0,39,0.00,,---,0.00,VWS V14.01,2013-04-20 16:45:00,
2013-04-20 12:50:00,53.8,31.9,30.19,NNE,29,0.0,12.0,43,0.00,,---,0.00,VWS V14.01,2013-04-20 16:50:00,
2013-04-20 12:55:00,54.5,29.4,30.19,SW,214,4.0,12.0,38,0.00,,---,0.00,VWS V14.01,2013-04-20 16:55:00,
2013-04-20 13:00:00,55.2,34.2,30.18,NNE,31,2.0,5.0,45,0.00,,---,0.00,VWS V14.01,2013-04-20 17:00:00,
2013-04-20 13:05:00,55.4,28.9,30.19,North,349,5.0,10.0,36,0.00,,---,0.00,VWS V14.01,2013-04-20 17:05:00,
2013-04-20 13:10:00,54.6,28.9,30.19,SE,127,2.0,11.0,37,0.00,,---,0.00,VWS V14.01,2013-04-20 17:10:00,
2013-04-20 13:15:00,54.5,31.9,30.18,North,7,4.0,5.0,42,0.00,,---,0.00,VWS V14.01,2013-04-20 17:15:00,
2013-04-20 13:20:00,55.1,30.0,30.18,NNW,345,5.0,5.0,38,0.00,,---,0.00,VWS V14.01,2013-04-20 17:20:00,
2013-04-20 13:25:00,55.2,29.4,30.18,NNE,26,5.0,17.0,37,0.00,,---,0.00,VWS V14.01,2013-04-20 17:25:00,
2013-04-20 13:30:00,55.1,33.0,30.18,WNW,283,4.0,4.0,43,0.00,,---,0.00,VWS V14.01,2013-04-20 17:30:00,
2013-04-20 13:35:00,55.6,31.7,30.18,North,5,7.0,13.0,40,0.00,,---,0.00,VWS V14.01,2013-04-20 17:35:00,
2013-04-20 13:40:00,55.5,29.0,30.18,NNW,333,4.0,13.0,36,0.00,,---,0.00,VWS V14.01,2013-04-20 17:40:00,
2013-04-20 13:45:00,56.1,30.9,30.18,NNW,327,2.0,6.0,38,0.00,,---,0.00,VWS V14.01,2013-04-20 17:45:00,
2013-04-20 13:51:00,56.0,29.4,30.18,NW,304,3.0,9.0,36,0.00,,---,0.00,VWS V14.01,2013-04-20 17:51:00,
2013-04-20 13:56:00,55.9,28.0,30.18,North,359,7.0,12.0,34,0.00,,---,0.00,VWS V14.01,2013-04-20 17:56:00,
2013-04-20 14:01:00,56.2,29.6,30.18,North,3,2.0,5.0,36,0.00,,---,0.00,VWS V14.01,2013-04-20 18:01:00,
2013-04-20 14:06:00,56.3,28.3,30.18,NW,308,6.0,9.0,34,0.00,,---,0.00,VWS V14.01,2013-04-20 18:06:00,
2013-04-20 14:11:00,56.4,29.1,30.18,NW,322,5.0,10.0,35,0.00,,---,0.00,VWS V14.01,2013-04-20 18:11:00,
2013-04-20 14:16:00,57.3,32.6,30.18,WNW,285,5.0,9.0,39,0.00,,---,0.00,VWS V14.01,2013-04-20 18:16:00,
2013-04-20 14:21:00,57.6,30.2,30.18,North,6,5.0,9.0,35,0.00,,---,0.00,VWS V14.01,2013-04-20 18:21:00,
2013-04-20 14:26:00,57.0,28.9,30.18,NE,36,7.0,9.0,34,0.00,,---,0.00,VWS V14.01,2013-04-20 18:26:00,
2013-04-20 14:30:00,57.5,28.6,30.18,North,358,6.0,11.0,33,0.00,,---,0.00,VWS V14.01,2013-04-20 18:30:00,
2013-04-20 14:35:00,57.4,30.0,30.17,WNW,294,2.0,11.0,35,0.00,,---,0.00,VWS V14.01,2013-04-20 18:35:00,
2013-04-20 14:40:00,58.1,30.6,30.17,WNW,295,6.0,11.0,35,0.00,,---,0.00,VWS V14.01,2013-04-20 18:40:00,
2013-04-20 14:45:00,58.5,31.0,30.18,NW,307,4.0,8.0,35,0.00,,---,0.00,VWS V14.01,2013-04-20 18:45:00,
2013-04-20 14:50:00,58.3,28.6,30.18,North,354,7.0,15.0,32,0.00,,---,0.00,VWS V14.01,2013-04-20 18:50:00,
2013-04-20 14:55:00,57.7,28.1,30.18,NW,306,3.0,15.0,32,0.00,,---,0.00,VWS V14.01,2013-04-20 18:55:00,
2013-04-20 15:00:00,57.7,26.5,30.18,West,260,4.0,6.0,30,0.00,,---,0.00,VWS V14.01,2013-04-20 19:00:00,
2013-04-20 15:05:00,58.3,32.2,30.18,WNW,295,1.0,8.0,37,0.00,,---,0.00,VWS V14.01,2013-04-20 19:05:00,
2013-04-20 15:10:00,58.6,27.3,30.18,NW,317,6.0,13.0,30,0.00,,---,0.00,VWS V14.01,2013-04-20 19:10:00,
2013-04-20 15:15:00,58.7,30.4,30.18,NNE,15,3.0,7.0,34,0.00,,---,0.00,VWS V14.01,2013-04-20 19:15:00,
2013-04-20 15:20:00,58.6,29.6,30.18,NNE,12,7.0,11.0,33,0.00,,---,0.00,VWS V14.01,2013-04-20 19:20:00,
2013-04-20 15:25:00,58.6,30.3,30.18,North,10,7.0,11.0,34,0.00,,---,0.00,VWS V14.01,2013-04-20 19:25:00,
2013-04-20 15:30:00,58.6,28.9,30.18,North,2,6.0,8.0,32,0.00,,---,0.00,VWS V14.01,2013-04-20 19:30:00,
2013-04-20 15:35:00,58.5,28.0,30.18,North,6,4.0,11.0,31,0.00,,---,0.00,VWS V14.01,2013-04-20 19:35:00,
2013-04-20 15:40:00,58.8,31.9,30.18,NNW,329,2.0,11.0,36,0.00,,---,0.00,VWS V14.01,2013-04-20 19:40:00,
2013-04-20 15:45:00,59.5,29.6,30.18,NW,306,2.0,8.0,32,0.00,,---,0.00,VWS V14.01,2013-04-20 19:45:00,
2013-04-20 15:50:00,59.5,27.2,30.18,NW,320,4.0,10.0,29,0.00,,---,0.00,VWS V14.01,2013-04-20 19:50:00,
2013-04-20 15:55:00,58.9,26.7,30.18,NNW,341,6.0,12.0,29,0.00,,---,0.00,VWS V14.01,2013-04-20 19:55:00,
2013-04-20 16:00:00,59.0,29.2,30.18,NNE,12,3.0,5.0,32,0.00,,---,0.00,VWS V14.01,2013-04-20 20:00:00,
2013-04-20 16:05:00,59.0,29.2,30.18,NNW,335,4.0,14.0,32,0.00,,---,0.00,VWS V14.01,2013-04-20 20:05:00,
2013-04-20 16:10:00,59.6,29.7,30.18,NNW,347,3.0,14.0,32,0.00,,---,0.00,VWS V14.01,2013-04-20 20:10:00,
2013-04-20 16:15:00,59.5,27.2,30.17,NNW,342,7.0,11.0,29,0.00,,---,0.00,VWS V14.01,2013-04-20 20:15:00,
2013-04-20 16:20:00,59.3,27.1,30.18,North,11,10.0,11.0,29,0.00,,---,0.00,VWS V14.01,2013-04-20 20:20:00,
2013-04-20 16:25:00,58.9,26.7,30.18,NNE,13,5.0,11.0,29,0.00,,---,0.00,VWS V14.01,2013-04-20 20:25:00,
2013-04-20 16:30:00,58.7,26.5,30.18,NNW,329,3.0,11.0,29,0.00,,---,0.00,VWS V14.01,2013-04-20 20:30:00,
2013-04-20 16:35:00,58.8,26.6,30.17,North,350,5.0,16.0,29,0.00,,---,0.00,VWS V14.01,2013-04-20 20:35:00,
2013-04-20 16:40:00,59.0,26.0,30.17,North,4,7.0,16.0,28,0.00,,---,0.00,VWS V14.01,2013-04-20 20:40:00,
2013-04-20 16:45:00,59.1,29.3,30.18,NNW,345,3.0,6.0,32,0.00,,---,0.00,VWS V14.01,2013-04-20 20:45:00,
2013-04-20 16:50:00,59.1,27.7,30.17,North,351,5.0,10.0,30,0.00,,---,0.00,VWS V14.01,2013-04-20 20:50:00,
2013-04-20 16:55:00,59.4,31.0,30.18,WNW,295,3.0,10.0,34,0.00,,---,0.00,VWS V14.01,2013-04-20 20:55:00,
2013-04-20 17:00:00,60.1,28.6,30.18,NNW,337,6.0,6.0,30,0.00,,---,0.00,VWS V14.01,2013-04-20 21:00:00,
2013-04-20 17:05:00,60.0,26.8,30.19,North,5,4.0,8.0,28,0.00,,---,0.00,VWS V14.01,2013-04-20 21:05:00,
2013-04-20 17:10:00,60.2,30.2,30.19,WNW,296,4.0,8.0,32,0.00,,---,0.00,VWS V14.01,2013-04-20 21:10:00,
2013-04-20 17:15:00,60.4,29.6,30.20,North,6,8.0,8.0,31,0.00,,---,0.00,VWS V14.01,2013-04-20 21:15:00,
2013-04-20 17:20:00,60.0,26.8,30.19,NNW,345,0.0,9.0,28,0.00,,---,0.00,VWS V14.01,2013-04-20 21:20:00,
2013-04-20 17:25:00,59.9,30.0,30.19,North,2,0.0,9.0,32,0.00,,---,0.00,VWS V14.01,2013-04-20 21:25:00,
2013-04-20 17:30:00,60.2,28.7,30.20,NW,326,4.0,6.0,30,0.00,,---,0.00,VWS V14.01,2013-04-20 21:30:00,
2013-04-20 17:35:00,60.0,27.7,30.20,NW,304,3.0,11.0,29,0.00,,---,0.00,VWS V14.01,2013-04-20 21:35:00,
2013-04-20 17:40:00,59.9,25.9,30.20,North,353,2.0,11.0,27,0.00,,---,0.00,VWS V14.01,2013-04-20 21:40:00,
2013-04-20 17:45:00,59.7,29.0,30.21,NNE,12,4.0,4.0,31,0.00,,---,0.00,VWS V14.01,2013-04-20 21:45:00,
2013-04-20 17:50:00,59.6,26.5,30.21,North,3,2.0,7.0,28,0.00,,---,0.00,VWS V14.01,2013-04-20 21:50:00,
2013-04-20 17:55:00,59.7,25.7,30.21,NW,312,8.0,8.0,27,0.00,,---,0.00,VWS V14.01,2013-04-20 21:55:00,
2013-04-20 18:00:00,59.7,26.6,30.21,NW,325,4.0,8.0,28,0.00,,---,0.00,VWS V14.01,2013-04-20 22:00:00,
2013-04-20 18:05:00,59.5,28.1,30.21,WNW,294,2.0,12.0,30,0.00,,---,0.00,VWS V14.01,2013-04-20 22:05:00,
2013-04-20 18:10:00,60.0,27.7,30.21,NNW,347,2.0,12.0,29,0.00,,---,0.00,VWS V14.01,2013-04-20 22:10:00,
2013-04-20 18:15:00,60.2,28.7,30.21,NNW,343,3.0,3.0,30,0.00,,---,0.00,VWS V14.01,2013-04-20 22:15:00,
2013-04-20 18:20:00,60.4,27.2,30.22,North,358,3.0,4.0,28,0.00,,---,0.00,VWS V14.01,2013-04-20 22:20:00,
2013-04-20 18:25:00,60.3,26.2,30.21,NW,305,2.0,5.0,27,0.00,,---,0.00,VWS V14.01,2013-04-20 22:25:00,
2013-04-20 18:30:00,60.2,27.9,30.22,West,264,2.0,3.0,29,0.00,,---,0.00,VWS V14.01,2013-04-20 22:30:00,
2013-04-20 18:35:00,60.1,25.1,30.22,NNW,337,1.0,6.0,26,0.00,,---,0.00,VWS V14.01,2013-04-20 22:35:00,
2013-04-20 18:40:00,59.8,27.5,30.22,North,10,2.0,9.0,29,0.00,,---,0.00,VWS V14.01,2013-04-20 22:40:00,
2013-04-20 18:45:00,59.5,26.4,30.22,North,1,6.0,8.0,28,0.00,,---,0.00,VWS V14.01,2013-04-20 22:45:00,
2013-04-20 18:50:00,59.1,27.7,30.22,NW,323,0.0,8.0,30,0.00,,---,0.00,VWS V14.01,2013-04-20 22:50:00,
2013-04-20 18:55:00,58.9,25.9,30.22,NNE,16,4.0,8.0,28,0.00,,---,0.00,VWS V14.01,2013-04-20 22:55:00,
2013-04-20 19:00:00,58.7,25.7,30.22,NW,320,5.0,7.0,28,0.00,,---,0.00,VWS V14.01,2013-04-20 23:00:00,
2013-04-20 19:05:00,58.4,25.5,30.23,NNW,335,2.0,7.0,28,0.00,,---,0.00,VWS V14.01,2013-04-20 23:05:00,
2013-04-20 19:10:00,58.2,26.9,30.23,North,359,4.0,7.0,30,0.00,,---,0.00,VWS V14.01,2013-04-20 23:10:00,
2013-04-20 19:15:00,57.8,25.8,30.23,NNW,329,2.0,3.0,29,0.00,,---,0.00,VWS V14.01,2013-04-20 23:15:00,
2013-04-20 19:20:00,57.6,24.8,30.23,NW,314,4.0,8.0,28,0.00,,---,0.00,VWS V14.01,2013-04-20 23:20:00,
2013-04-20 19:25:00,57.5,26.3,30.24,NNW,342,2.0,8.0,30,0.00,,---,0.00,VWS V14.01,2013-04-20 23:25:00,
2013-04-20 19:30:00,57.2,26.1,30.24,NW,321,2.0,3.0,30,0.00,,---,0.00,VWS V14.01,2013-04-20 23:30:00,
2013-04-20 19:35:00,56.9,25.0,30.24,NW,312,0.0,4.0,29,0.00,,---,0.00,VWS V14.01,2013-04-20 23:35:00,
2013-04-20 19:40:00,56.5,26.2,30.24,NW,314,0.0,4.0,31,0.00,,---,0.00,VWS V14.01,2013-04-20 23:40:00,
2013-04-20 19:45:00,55.6,27.0,30.25,NW,314,0.0,0.0,33,0.00,,---,0.00,VWS V14.01,2013-04-20 23:45:00,
2013-04-20 19:50:00,55.1,26.5,30.25,NW,314,3.0,3.0,33,0.00,,---,0.00,VWS V14.01,2013-04-20 23:50:00,
2013-04-20 19:55:00,55.1,31.2,30.26,NW,310,0.0,6.0,40,0.00,,---,0.00,VWS V14.01,2013-04-20 23:55:00,
2013-04-20 20:00:00,54.3,31.1,30.26,North,3,2.0,2.0,41,0.00,,---,0.00,VWS V14.01,2013-04-21 00:00:00,
2013-04-20 20:05:00,53.2,25.6,30.27,WNW,302,1.0,4.0,34,0.00,,---,0.00,VWS V14.01,2013-04-21 00:05:00,
2013-04-20 20:10:00,53.2,33.5,30.27,NW,314,0.0,4.0,47,0.00,,---,0.00,VWS V14.01,2013-04-21 00:10:00,
2013-04-20 20:15:00,52.1,33.0,30.27,NW,314,0.0,1.0,48,0.00,,---,0.00,VWS V14.01,2013-04-21 00:15:00,
2013-04-20 20:20:00,51.1,31.1,30.28,NW,314,2.0,3.0,46,0.00,,---,0.00,VWS V14.01,2013-04-21 00:20:00,
2013-04-20 20:25:00,50.5,32.6,30.28,NW,314,0.0,3.0,50,0.00,,---,0.00,VWS V14.01,2013-04-21 00:25:00,
2013-04-20 20:30:00,49.5,33.1,30.28,NW,314,0.0,0.0,53,0.00,,---,0.00,VWS V14.01,2013-04-21 00:30:00,
2013-04-20 20:35:00,48.9,36.1,30.29,NW,314,0.0,1.0,61,0.00,,---,0.00,VWS V14.01,2013-04-21 00:35:00,
2013-04-20 20:40:00,48.0,34.4,30.29,NW,314,0.0,1.0,59,0.00,,---,0.00,VWS V14.01,2013-04-21 00:40:00,
2013-04-20 20:45:00,47.6,34.0,30.29,NW,314,1.0,2.0,59,0.00,,---,0.00,VWS V14.01,2013-04-21 00:45:00,
2013-04-20 20:50:00,46.9,36.2,30.30,NW,314,0.0,2.0,66,0.00,,---,0.00,VWS V14.01,2013-04-21 00:50:00,
2013-04-20 20:55:00,46.2,34.7,30.30,NW,314,0.0,3.0,64,0.00,,---,0.00,VWS V14.01,2013-04-21 00:55:00,
2013-04-20 21:00:00,45.7,35.8,30.31,NW,314,0.0,0.0,68,0.00,,---,0.00,VWS V14.01,2013-04-21 01:00:00,
2013-04-20 21:05:00,45.1,34.8,30.31,NW,314,0.0,2.0,67,0.00,,---,0.00,VWS V14.01,2013-04-21 01:05:00,
2013-04-20 21:10:00,44.7,35.2,30.32,NW,314,0.0,2.0,69,0.00,,---,0.00,VWS V14.01,2013-04-21 01:10:00,
2013-04-20 21:15:00,44.5,35.7,30.32,NW,318,2.0,2.0,71,0.00,,---,0.00,VWS V14.01,2013-04-21 01:15:00,
2013-04-20 21:20:00,45.2,35.3,30.32,NNE,14,0.0,5.0,68,0.00,,---,0.00,VWS V14.01,2013-04-21 01:20:00,
2013-04-20 21:25:00,45.0,35.1,30.33,NNE,14,0.0,5.0,68,0.00,,---,0.00,VWS V14.01,2013-04-21 01:25:00,
2013-04-20 21:30:00,44.7,35.2,30.33,NNE,14,0.0,0.0,69,0.00,,---,0.00,VWS V14.01,2013-04-21 01:30:00,
2013-04-20 21:35:00,44.5,35.0,30.33,NNE,14,0.0,0.0,69,0.00,,---,0.00,VWS V14.01,2013-04-21 01:35:00,
2013-04-20 21:40:00,44.1,35.3,30.33,NNE,14,0.0,0.0,71,0.00,,---,0.00,VWS V14.01,2013-04-21 01:40:00,
2013-04-20 21:45:00,43.8,35.7,30.34,NNE,14,0.0,0.0,73,0.00,,---,0.00,VWS V14.01,2013-04-21 01:45:00,
2013-04-20 21:50:00,43.4,35.7,30.34,NNE,14,0.0,0.0,74,0.00,,---,0.00,VWS V14.01,2013-04-21 01:50:00,
2013-04-20 21:55:00,43.1,35.0,30.34,NNE,14,0.0,0.0,73,0.00,,---,0.00,VWS V14.01,2013-04-21 01:55:00,
2013-04-20 22:00:00,42.9,36.5,30.35,NNE,14,0.0,0.0,78,0.00,,---,0.00,VWS V14.01,2013-04-21 02:00:00,
2013-04-20 22:05:00,42.5,36.1,30.35,NNE,14,0.0,0.0,78,0.00,,---,0.00,VWS V14.01,2013-04-21 02:05:00,
2013-04-20 22:10:00,42.3,35.6,30.35,NNE,14,0.0,0.0,77,0.00,,---,0.00,VWS V14.01,2013-04-21 02:10:00,
2013-04-20 22:15:00,42.3,35.0,30.35,NNE,14,0.0,0.0,75,0.00,,---,0.00,VWS V14.01,2013-04-21 02:15:00,
2013-04-20 22:20:00,42.3,35.3,30.35,NNE,14,1.0,2.0,76,0.00,,---,0.00,VWS V14.01,2013-04-21 02:20:00,
2013-04-20 22:25:00,42.2,35.2,30.35,NNE,14,1.0,2.0,76,0.00,,---,0.00,VWS V14.01,2013-04-21 02:25:00,
2013-04-20 22:30:00,42.2,35.2,30.36,NNE,14,0.0,2.0,76,0.00,,---,0.00,VWS V14.01,2013-04-21 02:30:00,
2013-04-20 22:35:00,42.1,34.8,30.36,NNE,14,0.0,2.0,75,0.00,,---,0.00,VWS V14.01,2013-04-21 02:35:00,
2013-04-20 22:40:00,41.9,35.2,30.36,NNE,14,0.0,2.0,77,0.00,,---,0.00,VWS V14.01,2013-04-21 02:40:00,
2013-04-20 22:45:00,41.7,34.4,30.36,NNE,14,1.0,1.0,75,0.00,,---,0.00,VWS V14.01,2013-04-21 02:45:00,
2013-04-20 22:50:00,41.6,34.9,30.36,NNE,14,0.0,2.0,77,0.00,,---,0.00,VWS V14.01,2013-04-21 02:50:00,
2013-04-20 22:55:00,41.5,35.2,30.36,NNE,14,0.0,2.0,78,0.00,,---,0.00,VWS V14.01,2013-04-21 02:55:00,
2013-04-20 23:00:00,41.3,35.0,30.36,NNE,14,0.0,0.0,78,0.00,,---,0.00,VWS V14.01,2013-04-21 03:00:00,
2013-04-20 23:05:00,41.1,35.1,30.36,NNE,14,0.0,1.0,79,0.00,,---,0.00,VWS V14.01,2013-04-21 03:05:00,
2013-04-20 23:10:00,40.9,35.2,30.37,NNE,14,0.0,1.0,80,0.00,,---,0.00,VWS V14.01,2013-04-21 03:10:00,
2013-04-20 23:15:00,40.6,34.9,30.37,NNE,14,0.0,0.0,80,0.00,,---,0.00,VWS V14.01,2013-04-21 03:15:00,
2013-04-20 23:20:00,40.3,34.3,30.36,NNE,14,0.0,0.0,79,0.00,,---,0.00,VWS V14.01,2013-04-21 03:20:00,
2013-04-20 23:25:00,40.2,34.5,30.37,NNE,14,0.0,1.0,80,0.00,,---,0.00,VWS V14.01,2013-04-21 03:25:00,
2013-04-20 23:30:00,40.1,33.8,30.37,NNE,14,0.0,0.0,78,0.00,,---,0.00,VWS V14.01,2013-04-21 03:30:00,
2013-04-20 23:35:00,40.2,34.8,30.37,NNE,14,0.0,1.0,81,0.00,,---,0.00,VWS V14.01,2013-04-21 03:35:00,
2013-04-20 23:40:00,40.7,32.0,30.37,NNE,14,0.0,3.0,71,0.00,,---,0.00,VWS V14.01,2013-04-21 03:40:00,
2013-04-20 23:45:00,41.8,32.0,30.37,North,3,1.0,2.0,68,0.00,,---,0.00,VWS V14.01,2013-04-21 03:45:00,
2013-04-20 23:50:00,43.2,32.2,30.38,North,360,1.0,5.0,65,0.00,,---,0.00,VWS V14.01,2013-04-21 03:50:00,
2013-04-20 23:55:00,44.4,33.0,30.38,North,360,1.0,5.0,64,0.00,,---,0.00,VWS V14.01,2013-04-21 03:55:00,